Temperatur und Luftfeuchte

Temperatur und Luftfeuchte

Die letzten 100 Messwerte

Nummer Datum und Zeit Sensor ID Temperatur in Celsius gef├╝hlte Temperatur Luftfeuchte in %
23736 2020-03-30 12:24:50 Terrasse 8.30 5.94 29.00
23735 2020-03-30 11:56:41 Terrasse 7.70 5.39 33.10
23734 2020-03-30 11:28:11 Terrasse 6.10 3.57 30.70
23733 2020-03-30 10:59:50 Terrasse 4.80 2.17 31.80
23732 2020-03-30 10:31:29 Terrasse 3.80 1.11 33.60
23731 2020-03-30 10:03:11 Terrasse 3.00 0.25 34.30
23730 2020-03-30 09:34:55 Terrasse 2.40 -0.37 35.80
23729 2020-03-30 09:06:40 Terrasse 1.90 -0.91 36.20
23728 2020-03-30 08:38:24 Terrasse 1.30 -1.51 38.50
23727 2020-03-30 08:10:08 Terrasse 0.70 -2.11 40.70
23726 2020-03-30 07:42:02 Terrasse 0.50 -2.32 41.00
23725 2020-03-30 07:13:49 Terrasse 0.50 -2.31 41.70
23724 2020-03-30 06:45:37 Terrasse 0.60 -2.20 41.60
23723 2020-03-30 06:17:26 Terrasse 0.80 -1.98 41.50
23722 2020-03-30 05:49:17 Terrasse 1.10 -1.64 41.90
23721 2020-03-30 05:21:06 Terrasse 1.30 -1.43 41.40
23720 2020-03-30 04:52:56 Terrasse 1.40 -1.31 41.80
23719 2020-03-30 04:24:45 Terrasse 1.70 -0.96 42.70
23718 2020-03-30 03:56:33 Terrasse 1.80 -0.82 43.90
23717 2020-03-30 03:28:38 Terrasse 2.00 -0.58 44.50
23716 2020-03-30 03:00:19 Terrasse 2.20 -0.34 45.20
23715 2020-03-30 02:32:07 Terrasse 2.40 -0.10 46.20
23714 2020-03-30 02:03:56 Terrasse 2.60 0.15 47.20
23713 2020-03-30 01:35:45 Terrasse 2.70 0.27 47.60
23712 2020-03-30 01:07:34 Terrasse 3.10 0.70 47.20
23711 2020-03-30 00:39:24 Terrasse 3.40 1.03 47.20
23710 2020-03-30 00:11:15 Terrasse 3.50 1.15 47.50
23709 2020-03-29 23:43:05 Terrasse 3.80 1.51 49.00
23708 2020-03-29 23:14:53 Terrasse 4.10 1.89 50.70
23707 2020-03-29 22:46:42 Terrasse 4.40 2.27 52.50
23706 2020-03-29 22:18:32 Terrasse 4.70 2.62 53.40
23705 2020-03-29 21:50:21 Terrasse 5.10 3.08 54.10
23704 2020-03-29 21:22:09 Terrasse 5.20 3.21 55.00
23703 2020-03-29 20:54:07 Terrasse 5.50 3.55 55.50
23702 2020-03-29 20:25:54 Terrasse 5.80 3.93 57.40
23701 2020-03-29 19:57:44 Terrasse 6.10 4.28 58.00
23700 2020-03-29 19:29:34 Terrasse 6.60 4.77 55.60
23699 2020-03-29 19:01:24 Terrasse 7.20 5.42 55.20
23698 2020-03-29 18:33:15 Terrasse 7.80 6.04 53.60
23697 2020-03-29 18:05:05 Terrasse 8.60 6.76 47.60
23696 2020-03-29 17:36:58 Terrasse 9.60 7.76 43.70
23695 2020-03-29 17:08:47 Terrasse 10.30 8.44 40.20
23694 2020-03-29 16:40:23 Terrasse 9.20 7.30 43.20
23693 2020-03-29 16:12:07 Terrasse 9.00 7.07 42.60
23692 2020-03-29 15:43:53 Terrasse 9.00 7.10 43.80
23691 2020-03-29 15:15:41 Terrasse 9.10 7.22 44.30
23690 2020-03-29 14:47:27 Terrasse 9.30 7.45 44.60
23689 2020-03-29 14:19:15 Terrasse 9.60 7.78 44.70
23688 2020-03-29 13:51:01 Terrasse 9.60 7.78 44.60
23687 2020-03-29 13:22:59 Terrasse 11.00 9.28 43.00
23686 2020-03-29 12:54:37 Terrasse 9.10 7.21 43.80
23685 2020-03-29 12:26:26 Terrasse 9.40 7.54 43.80
23684 2020-03-29 11:58:10 Terrasse 8.80 6.97 47.40
23683 2020-03-29 11:29:54 Terrasse 8.70 6.90 48.90
23682 2020-03-29 11:01:42 Terrasse 8.60 6.79 48.80
23681 2020-03-29 10:33:23 Terrasse 7.50 5.61 50.00
23680 2020-03-29 10:05:04 Terrasse 6.80 4.88 51.40
23679 2020-03-29 09:36:52 Terrasse 7.00 5.08 50.80
23678 2020-03-29 09:08:37 Terrasse 7.10 5.19 50.90
23677 2020-03-29 08:40:16 Terrasse 6.20 4.20 50.90
23676 2020-03-29 08:11:58 Terrasse 5.40 3.32 50.80
23675 2020-03-29 07:43:43 Terrasse 5.10 2.99 50.60
23674 2020-03-29 07:15:30 Terrasse 5.20 3.09 50.40
23673 2020-03-29 06:47:17 Terrasse 5.30 3.20 50.30
23672 2020-03-29 06:19:03 Terrasse 5.50 3.42 50.30
23671 2020-03-29 05:50:50 Terrasse 5.80 3.74 49.80
23670 2020-03-29 05:22:38 Terrasse 6.30 4.28 49.60
23669 2020-03-29 04:54:27 Terrasse 6.70 4.73 49.80
23668 2020-03-29 04:26:14 Terrasse 7.10 5.16 49.60
23667 2020-03-29 03:58:03 Terrasse 7.50 5.62 50.20
23666 2020-03-29 03:29:49 Terrasse 7.80 5.98 51.50
23665 2020-03-29 03:01:36 Terrasse 8.20 6.38 50.00
23664 2020-03-29 01:33:24 Terrasse 8.60 6.79 49.00
23663 2020-03-29 01:05:13 Terrasse 9.00 7.22 48.30
23662 2020-03-29 00:37:01 Terrasse 9.30 7.55 48.30
23661 2020-03-29 00:08:50 Terrasse 9.70 7.97 47.80
23660 2020-03-28 23:40:39 Terrasse 10.10 8.34 44.80
23659 2020-03-28 23:12:28 Terrasse 10.60 8.80 41.50
23658 2020-03-28 22:44:18 Terrasse 11.10 9.35 41.40
23657 2020-03-28 22:16:07 Terrasse 11.50 9.80 41.90
23656 2020-03-28 21:47:57 Terrasse 12.00 10.33 41.10
23655 2020-03-28 21:19:45 Terrasse 12.50 10.86 40.30
23654 2020-03-28 20:51:33 Terrasse 13.00 11.35 37.90
23653 2020-03-28 20:23:23 Terrasse 13.70 12.09 36.90
23652 2020-03-28 19:55:11 Terrasse 14.30 12.69 34.80
23651 2020-03-28 19:26:59 Terrasse 14.90 13.31 33.20
23650 2020-03-28 18:58:49 Terrasse 15.70 14.18 32.70
23649 2020-03-28 18:30:40 Terrasse 16.80 15.34 31.00
23648 2020-03-28 18:02:31 Terrasse 18.00 16.71 32.60
23647 2020-03-28 17:34:23 Terrasse 19.20 18.03 32.60
23646 2020-03-28 17:06:14 Terrasse 20.50 19.46 32.60
23645 2020-03-28 16:38:16 Terrasse 21.90 21.00 32.60
23644 2020-03-28 16:09:58 Terrasse 22.40 21.52 31.70
23643 2020-03-28 15:41:58 Terrasse 22.70 21.87 32.30
23642 2020-03-28 15:13:44 Terrasse 23.70 22.94 31.30
23641 2020-03-28 14:45:45 Terrasse 24.50 23.83 31.70
23640 2020-03-28 14:17:37 Terrasse 26.50 26.00 30.30
23639 2020-03-28 13:50:00 Terrasse 29.10 27.96 30.10
23638 2020-03-28 13:21:53 Terrasse 29.90 28.67 30.20
23637 2020-03-28 12:53:06 Terrasse 27.90 27.10 31.70